Simultaneous Nadir Overpasses (SNOs) Predictions

Prediction of SNOs between NOAA-20 and LANDSAT-8 Satellite Orbit:

Table of predicted SNOs for the next 14.0 days since TLE Epoch: 11/7/2020
Index Date (NOAA-20) Time (NOAA-20) Lat,Lon (NOAA-20) SZA (NOAA-20 ) Date (LANDSAT-8) Time (LANDSAT-8) Lat,Lon (LANDSAT-8) SZA (LANDSAT-8 ) Distance(km) Time Diff (sec)
1 11/07/2020 15:05:49 -70.04, 129.81 93.53 11/07/2020 15:06:57 -70.07, 129.75 93.51 3.24 68
2 11/07/2020 15:56:34 69.98, -62.79 86.42 11/07/2020 15:56:24 69.97, -62.74 86.40 2.23 10
3 11/07/2020 16:47:10 -69.57, 105.13 93.99 11/07/2020 16:45:58 -69.63, 104.42 93.93 28.29 72
4 11/10/2020 07:22:45 -70.02,-114.38 92.80 11/10/2020 07:23:26 -70.03,-114.42 92.79 2.34 41
5 11/10/2020 08:13:29 69.90, 53.10 87.10 11/10/2020 08:12:53 69.93, 53.09 87.13 3.40 36
6 11/12/2020 22:49:09 70.61,-166.87 88.52 11/12/2020 22:50:18 70.49,-165.50 88.40 52.40 69
7 11/12/2020 23:39:41 -69.99, 1.42 92.10 11/12/2020 23:39:55 -69.99, 1.41 92.10 0.71 14
8 11/13/2020 00:30:25 69.88, 168.90 87.80 11/13/2020 00:29:22 69.89, 168.91 87.81 1.33 63
9 11/15/2020 15:05:55 70.06, -50.24 88.66 11/15/2020 15:06:54 70.06, -50.25 88.65 0.79 59
10 11/15/2020 15:56:37 -69.97, 117.22 91.44 11/15/2020 15:56:24 -69.95, 117.23 91.45 1.81 13
11 11/15/2020 16:47:10 69.27, -74.45 87.88 11/15/2020 16:46:01 69.29, -76.02 87.90 61.66 69
12 11/18/2020 07:22:49 69.99, 65.63 89.24 11/18/2020 07:23:22 70.00, 65.56 89.25 2.89 33
13 11/18/2020 08:13:31 -69.89,-126.90 90.86 11/18/2020 08:12:52 -69.90,-126.95 90.85 2.09 39
14 11/20/2020 22:49:08 -70.45, 13.38 89.70 11/20/2020 22:50:19 -70.33, 14.27 89.83 35.86 71
15 11/20/2020 23:39:45 69.98,-178.58 89.83 11/20/2020 23:39:50 70.00,-178.56 89.85 2.44 5
16 11/21/2020 00:30:27 -69.88, -11.11 90.27 11/21/2020 00:29:20 -69.90, -11.07 90.25 2.91 67
